Year,Month,Day,Hour,Minute,Value (Times are PST for temperature in C)
2019,05,26,00,00,13.00
2019,05,26,00,01,12.90
2019,05,26,00,02,12.90
2019,05,26,00,03,12.90
2019,05,26,00,04,12.80
2019,05,26,00,05,12.80
2019,05,26,00,06,12.80
2019,05,26,00,07,12.80
2019,05,26,00,08,12.70
2019,05,26,00,09,12.70
2019,05,26,00,10,12.70
2019,05,26,00,11,12.70
2019,05,26,00,12,12.70
2019,05,26,00,13,12.60
2019,05,26,00,14,12.60
2019,05,26,00,15,12.60
2019,05,26,00,16,12.60
2019,05,26,00,17,12.60
2019,05,26,00,18,12.60
2019,05,26,00,19,12.60
2019,05,26,00,20,12.50
2019,05,26,00,21,12.50
2019,05,26,00,22,12.50
2019,05,26,00,23,12.50
2019,05,26,00,24,12.50
2019,05,26,00,25,12.50
2019,05,26,00,26,12.50
2019,05,26,00,27,12.50
2019,05,26,00,28,12.50
2019,05,26,00,29,12.50
2019,05,26,00,30,12.50
2019,05,26,00,31,12.50
2019,05,26,00,32,12.50
2019,05,26,00,33,12.50
2019,05,26,00,34,12.50
2019,05,26,00,35,12.50
2019,05,26,00,36,12.50
2019,05,26,00,37,12.40
2019,05,26,00,38,12.50
2019,05,26,00,39,12.50
2019,05,26,00,40,12.40
2019,05,26,00,41,12.50
2019,05,26,00,42,12.50
2019,05,26,00,43,12.50
2019,05,26,00,44,12.50
2019,05,26,00,45,12.50
2019,05,26,00,46,12.50
2019,05,26,00,47,12.50
2019,05,26,00,48,12.50
2019,05,26,00,49,12.50
2019,05,26,00,50,12.50
2019,05,26,00,51,12.50
2019,05,26,00,52,12.50
2019,05,26,00,53,12.50
2019,05,26,00,54,12.40
2019,05,26,00,55,12.40
2019,05,26,00,56,12.40
2019,05,26,00,57,12.40
2019,05,26,00,58,12.30
2019,05,26,00,59,12.30
2019,05,26,01,00,12.30
2019,05,26,01,01,12.30
2019,05,26,01,02,12.30
2019,05,26,01,03,12.30
2019,05,26,01,04,12.30
2019,05,26,01,05,12.30
2019,05,26,01,06,12.30
2019,05,26,01,07,12.20
2019,05,26,01,08,12.20
2019,05,26,01,09,12.20
2019,05,26,01,10,12.20
2019,05,26,01,11,12.20
2019,05,26,01,12,12.20
2019,05,26,01,13,12.20
2019,05,26,01,14,12.20
2019,05,26,01,15,12.20
2019,05,26,01,16,12.10
2019,05,26,01,17,12.10
2019,05,26,01,18,12.10
2019,05,26,01,19,12.10
2019,05,26,01,20,12.10
2019,05,26,01,21,12.00
2019,05,26,01,22,12.00
2019,05,26,01,23,12.00
2019,05,26,01,24,11.90
2019,05,26,01,25,11.90
2019,05,26,01,26,11.90
2019,05,26,01,27,11.90
2019,05,26,01,28,11.90
2019,05,26,01,29,11.90
2019,05,26,01,30,11.90
2019,05,26,01,31,11.90
2019,05,26,01,32,11.90
2019,05,26,01,33,11.90
2019,05,26,01,34,11.90
2019,05,26,01,35,11.90
2019,05,26,01,36,11.90
2019,05,26,01,37,11.90
2019,05,26,01,38,11.90
2019,05,26,01,39,11.90
2019,05,26,01,40,11.80
2019,05,26,01,41,11.80
2019,05,26,01,42,11.80
2019,05,26,01,43,11.80
2019,05,26,01,44,11.80
2019,05,26,01,45,11.80
2019,05,26,01,46,11.80
2019,05,26,01,47,11.80
2019,05,26,01,48,11.80
2019,05,26,01,49,11.80
2019,05,26,01,50,11.70
2019,05,26,01,51,11.70
2019,05,26,01,52,11.70
2019,05,26,01,53,11.70
2019,05,26,01,54,11.80
2019,05,26,01,55,11.80
2019,05,26,01,56,11.70
2019,05,26,01,57,11.70
2019,05,26,01,58,11.70
2019,05,26,01,59,11.70
2019,05,26,02,00,11.70
2019,05,26,02,01,11.70
2019,05,26,02,02,11.60
2019,05,26,02,03,11.60
2019,05,26,02,04,11.60
2019,05,26,02,05,11.60
2019,05,26,02,06,11.60
2019,05,26,02,07,11.60
2019,05,26,02,08,11.60
2019,05,26,02,09,11.70
2019,05,26,02,10,11.70
2019,05,26,02,11,11.70
2019,05,26,02,12,11.70
2019,05,26,02,13,11.70
2019,05,26,02,14,11.80
2019,05,26,02,15,11.90
2019,05,26,02,16,11.90
2019,05,26,02,17,12.00
2019,05,26,02,18,12.10
2019,05,26,02,19,12.10
2019,05,26,02,20,12.20
2019,05,26,02,21,12.20
2019,05,26,02,22,12.30
2019,05,26,02,23,12.30
2019,05,26,02,24,12.40
2019,05,26,02,25,12.40
2019,05,26,02,26,12.40
2019,05,26,02,27,12.50
2019,05,26,02,28,12.50
2019,05,26,02,29,12.50
2019,05,26,02,30,12.50
2019,05,26,02,31,12.60
2019,05,26,02,32,12.60
2019,05,26,02,33,12.60
2019,05,26,02,34,12.60
2019,05,26,02,35,12.60
2019,05,26,02,36,12.60
2019,05,26,02,37,12.60
2019,05,26,02,38,12.70
2019,05,26,02,39,12.70
2019,05,26,02,40,12.70
2019,05,26,02,41,12.70
2019,05,26,02,42,12.80
2019,05,26,02,43,12.80
2019,05,26,02,44,12.80
2019,05,26,02,45,12.80
2019,05,26,02,46,12.80
2019,05,26,02,47,12.70
2019,05,26,02,48,12.70
2019,05,26,02,49,12.70
2019,05,26,02,50,12.70
2019,05,26,02,51,12.70
2019,05,26,02,52,12.60
2019,05,26,02,53,12.60
2019,05,26,02,54,12.60
2019,05,26,02,55,12.60
2019,05,26,02,56,12.60
2019,05,26,02,57,12.60
2019,05,26,02,58,12.50
2019,05,26,02,59,12.50
2019,05,26,03,00,12.50
2019,05,26,03,01,12.40
2019,05,26,03,02,12.40
2019,05,26,03,03,12.40
2019,05,26,03,04,12.40
2019,05,26,03,05,12.40
2019,05,26,03,06,12.40
2019,05,26,03,07,12.40
2019,05,26,03,08,12.40
2019,05,26,03,09,12.50
2019,05,26,03,10,12.50
2019,05,26,03,11,12.50
2019,05,26,03,12,12.50
2019,05,26,03,13,12.50
2019,05,26,03,14,12.50
2019,05,26,03,15,12.50
2019,05,26,03,16,12.50
2019,05,26,03,17,12.40
2019,05,26,03,18,12.40
2019,05,26,03,19,12.40
2019,05,26,03,20,12.40
2019,05,26,03,21,12.40
2019,05,26,03,22,12.40
2019,05,26,03,23,12.40
2019,05,26,03,24,12.40
2019,05,26,03,25,12.40
2019,05,26,03,26,12.40
2019,05,26,03,27,12.40
2019,05,26,03,28,12.40
2019,05,26,03,29,12.40
2019,05,26,03,30,12.40
2019,05,26,03,31,12.40
2019,05,26,03,32,12.50
2019,05,26,03,33,12.50
2019,05,26,03,34,12.50
2019,05,26,03,35,12.50
2019,05,26,03,36,12.50
2019,05,26,03,37,12.50
2019,05,26,03,38,12.60
2019,05,26,03,39,12.60
2019,05,26,03,40,12.60
2019,05,26,03,41,12.60
2019,05,26,03,42,12.60
2019,05,26,03,43,12.60
2019,05,26,03,44,12.60
2019,05,26,03,45,12.60
2019,05,26,03,46,12.60
2019,05,26,03,47,12.60
2019,05,26,03,48,12.60
2019,05,26,03,49,12.60
2019,05,26,03,50,12.60
2019,05,26,03,51,12.60
2019,05,26,03,52,12.60
2019,05,26,03,53,12.60
2019,05,26,03,54,12.60
2019,05,26,03,55,12.50
2019,05,26,03,56,12.50
2019,05,26,03,57,12.50
2019,05,26,03,58,12.50
2019,05,26,03,59,12.50
2019,05,26,04,00,12.50
2019,05,26,04,01,12.50
2019,05,26,04,02,12.50
2019,05,26,04,03,12.50
2019,05,26,04,04,12.60
2019,05,26,04,05,12.60
2019,05,26,04,06,12.60
2019,05,26,04,07,12.50
2019,05,26,04,08,12.50
2019,05,26,04,09,12.50
2019,05,26,04,10,12.50
2019,05,26,04,11,12.50
2019,05,26,04,12,12.40
2019,05,26,04,13,12.40
2019,05,26,04,14,12.40
2019,05,26,04,15,12.40
2019,05,26,04,16,12.40
2019,05,26,04,17,12.40
2019,05,26,04,18,12.40
2019,05,26,04,19,12.40
2019,05,26,04,20,12.40
2019,05,26,04,21,12.40
2019,05,26,04,22,12.40
2019,05,26,04,23,12.50
2019,05,26,04,24,12.50
2019,05,26,04,25,12.50
2019,05,26,04,26,12.50
2019,05,26,04,27,12.50
2019,05,26,04,28,12.60
2019,05,26,04,29,12.60
2019,05,26,04,30,12.60
2019,05,26,04,31,12.60
2019,05,26,04,32,12.60
2019,05,26,04,33,12.60
2019,05,26,04,34,12.60
2019,05,26,04,35,12.60
2019,05,26,04,36,12.60
2019,05,26,04,37,12.60
2019,05,26,04,38,12.60
2019,05,26,04,39,12.60
2019,05,26,04,40,12.60
2019,05,26,04,41,12.60
2019,05,26,04,42,12.60
2019,05,26,04,43,12.60
2019,05,26,04,44,12.70
2019,05,26,04,45,12.70
2019,05,26,04,46,12.80
2019,05,26,04,47,12.80
2019,05,26,04,48,12.90
2019,05,26,04,49,13.00
2019,05,26,04,50,13.10
2019,05,26,04,51,13.20
2019,05,26,04,52,13.30
2019,05,26,04,53,13.40
2019,05,26,04,54,13.50
2019,05,26,04,55,13.60
2019,05,26,04,56,13.60
2019,05,26,04,57,13.60
2019,05,26,04,58,13.70
2019,05,26,04,59,13.70
2019,05,26,05,00,13.70
2019,05,26,05,01,13.70
2019,05,26,05,02,13.70
2019,05,26,05,03,13.70
2019,05,26,05,04,13.70
2019,05,26,05,05,13.70
2019,05,26,05,06,13.60
2019,05,26,05,07,13.60
2019,05,26,05,08,13.60
2019,05,26,05,09,13.60
2019,05,26,05,10,13.60
2019,05,26,05,11,13.50
2019,05,26,05,12,13.50
2019,05,26,05,13,13.50
2019,05,26,05,14,13.50
2019,05,26,05,15,13.50
2019,05,26,05,16,13.50
2019,05,26,05,17,13.50
2019,05,26,05,18,13.50
2019,05,26,05,19,13.50
2019,05,26,05,20,13.60
2019,05,26,05,21,13.60
2019,05,26,05,22,13.60
2019,05,26,05,23,13.60
2019,05,26,05,24,13.60
2019,05,26,05,25,13.60
2019,05,26,05,26,13.60
2019,05,26,05,27,13.60
2019,05,26,05,28,13.60
2019,05,26,05,29,13.60
2019,05,26,05,30,13.60
2019,05,26,05,31,13.60
2019,05,26,05,32,13.60
2019,05,26,05,33,13.60
2019,05,26,05,34,13.60
2019,05,26,05,35,13.60
2019,05,26,05,36,13.60
2019,05,26,05,37,13.60
2019,05,26,05,38,13.60
2019,05,26,05,39,13.60
2019,05,26,05,40,13.60
2019,05,26,05,41,13.60
2019,05,26,05,42,13.60
2019,05,26,05,43,13.60
2019,05,26,05,44,13.70
2019,05,26,05,45,13.70
2019,05,26,05,46,13.70
2019,05,26,05,47,13.70
2019,05,26,05,48,13.80
2019,05,26,05,49,13.80
2019,05,26,05,50,13.80
2019,05,26,05,51,13.80
2019,05,26,05,52,13.80
2019,05,26,05,53,13.80
2019,05,26,05,54,13.80
2019,05,26,05,55,13.90
2019,05,26,05,56,13.90
2019,05,26,05,57,13.90
2019,05,26,05,58,13.90
2019,05,26,05,59,13.90
2019,05,26,06,00,13.90
2019,05,26,06,01,13.90
2019,05,26,06,02,13.90
2019,05,26,06,03,13.90
2019,05,26,06,04,13.90
2019,05,26,06,05,13.90
2019,05,26,06,06,14.00
2019,05,26,06,07,14.00
2019,05,26,06,08,14.10
2019,05,26,06,09,14.10
2019,05,26,06,10,14.10
2019,05,26,06,11,14.20
2019,05,26,06,12,14.20
2019,05,26,06,13,14.20
2019,05,26,06,14,14.20
2019,05,26,06,15,14.30
2019,05,26,06,16,14.30
2019,05,26,06,17,14.30
2019,05,26,06,18,14.30
2019,05,26,06,19,14.30
2019,05,26,06,20,14.40
2019,05,26,06,21,14.40
2019,05,26,06,22,14.40
2019,05,26,06,23,14.40
2019,05,26,06,24,14.50
2019,05,26,06,25,14.50
2019,05,26,06,26,14.50
2019,05,26,06,27,14.60
2019,05,26,06,28,14.60
2019,05,26,06,29,14.60
2019,05,26,06,30,14.60
2019,05,26,06,31,14.70
2019,05,26,06,32,14.70
2019,05,26,06,33,14.70
2019,05,26,06,34,14.70
2019,05,26,06,35,14.80
2019,05,26,06,36,14.80
2019,05,26,06,37,14.90
2019,05,26,06,38,14.90
2019,05,26,06,39,15.00
2019,05,26,06,40,15.00
2019,05,26,06,41,15.00
2019,05,26,06,42,15.00
2019,05,26,06,43,15.00
2019,05,26,06,44,15.00
2019,05,26,06,45,15.00
2019,05,26,06,46,15.00
2019,05,26,06,47,15.00
2019,05,26,06,48,15.00
2019,05,26,06,49,15.10
2019,05,26,06,50,15.20
2019,05,26,06,51,15.30
2019,05,26,06,52,15.30
2019,05,26,06,53,15.30
2019,05,26,06,54,15.40
2019,05,26,06,55,15.40
2019,05,26,06,56,15.40
2019,05,26,06,57,15.40
2019,05,26,06,58,15.40
2019,05,26,06,59,15.40
2019,05,26,07,00,15.50
2019,05,26,07,01,15.50
2019,05,26,07,02,15.50
2019,05,26,07,03,15.60
2019,05,26,07,04,15.60
2019,05,26,07,05,15.60
2019,05,26,07,06,15.60
2019,05,26,07,07,15.60
2019,05,26,07,08,15.60
2019,05,26,07,09,15.60
2019,05,26,07,10,15.60
2019,05,26,07,11,15.60
2019,05,26,07,12,15.60
2019,05,26,07,13,15.60
2019,05,26,07,14,15.60
2019,05,26,07,15,15.60
2019,05,26,07,16,15.60
2019,05,26,07,17,15.70
2019,05,26,07,18,15.70
2019,05,26,07,19,15.70
2019,05,26,07,20,15.70
2019,05,26,07,21,15.70
2019,05,26,07,22,15.70
2019,05,26,07,23,15.70
2019,05,26,07,24,15.80
2019,05,26,07,25,15.80
2019,05,26,07,26,15.80
2019,05,26,07,27,15.80
2019,05,26,07,28,15.80
2019,05,26,07,29,15.80
2019,05,26,07,30,15.90
2019,05,26,07,31,15.90
2019,05,26,07,32,15.90
2019,05,26,07,33,15.90
2019,05,26,07,34,15.90
2019,05,26,07,35,16.00
2019,05,26,07,36,16.00
2019,05,26,07,37,16.00
2019,05,26,07,38,15.90
2019,05,26,07,39,15.90
2019,05,26,07,40,15.90
2019,05,26,07,41,15.80
2019,05,26,07,42,15.80
2019,05,26,07,43,15.80
2019,05,26,07,44,15.80
2019,05,26,07,45,15.80
2019,05,26,07,46,15.80
2019,05,26,07,47,15.80
2019,05,26,07,48,15.80
2019,05,26,07,49,15.80
2019,05,26,07,50,15.80
2019,05,26,07,51,15.80
2019,05,26,07,52,15.90
2019,05,26,07,53,15.90
2019,05,26,07,54,15.90
2019,05,26,07,55,15.90
2019,05,26,07,56,15.90
2019,05,26,07,57,15.90
2019,05,26,07,58,16.00
2019,05,26,07,59,16.00
2019,05,26,08,00,16.00
2019,05,26,08,01,16.00
2019,05,26,08,02,16.00
2019,05,26,08,03,15.90
2019,05,26,08,04,15.90
2019,05,26,08,05,15.80
2019,05,26,08,06,15.80
2019,05,26,08,07,15.80
2019,05,26,08,08,15.70
2019,05,26,08,09,15.70
2019,05,26,08,10,15.70
2019,05,26,08,11,15.70
2019,05,26,08,12,15.80
2019,05,26,08,13,15.80
2019,05,26,08,14,15.80
2019,05,26,08,15,15.80
2019,05,26,08,16,15.80
2019,05,26,08,17,15.70
2019,05,26,08,18,15.70
2019,05,26,08,19,15.70
2019,05,26,08,20,15.70
2019,05,26,08,21,15.70
2019,05,26,08,22,15.70
2019,05,26,08,23,15.60
2019,05,26,08,24,15.60
2019,05,26,08,25,15.60
2019,05,26,08,26,15.70
2019,05,26,08,27,15.70
2019,05,26,08,28,15.70
2019,05,26,08,29,15.70
2019,05,26,08,30,15.70
2019,05,26,08,31,15.80
2019,05,26,08,32,15.70
2019,05,26,08,33,15.70
2019,05,26,08,34,15.80
2019,05,26,08,35,15.80
2019,05,26,08,36,15.80
2019,05,26,08,37,15.80
2019,05,26,08,38,15.80
2019,05,26,08,39,15.80
2019,05,26,08,40,15.80
2019,05,26,08,41,15.80
2019,05,26,08,42,15.80
2019,05,26,08,43,15.90
2019,05,26,08,44,15.90
2019,05,26,08,45,16.00
2019,05,26,08,46,16.00
2019,05,26,08,47,16.00
2019,05,26,08,48,16.00
2019,05,26,08,49,16.00
2019,05,26,08,50,15.90
2019,05,26,08,51,15.80
2019,05,26,08,52,15.70
2019,05,26,08,53,15.70
2019,05,26,08,54,15.70
2019,05,26,08,55,15.60
2019,05,26,08,56,15.60
2019,05,26,08,57,15.60
2019,05,26,08,58,15.60
2019,05,26,08,59,15.60
2019,05,26,09,00,15.60
2019,05,26,09,01,15.60
2019,05,26,09,02,15.60
2019,05,26,09,03,15.50
2019,05,26,09,04,15.50
2019,05,26,09,05,15.40
2019,05,26,09,06,15.40
2019,05,26,09,07,15.40
2019,05,26,09,08,15.40
2019,05,26,09,09,15.30
2019,05,26,09,10,15.40
2019,05,26,09,11,15.40
2019,05,26,09,12,15.50
2019,05,26,09,13,15.50
2019,05,26,09,14,15.50
2019,05,26,09,15,15.50
2019,05,26,09,16,15.50
2019,05,26,09,17,15.50
2019,05,26,09,18,15.50
2019,05,26,09,19,15.40
2019,05,26,09,20,15.40
2019,05,26,09,21,15.40
2019,05,26,09,22,15.40
2019,05,26,09,23,15.40
2019,05,26,09,24,15.50
2019,05,26,09,25,15.50
2019,05,26,09,26,15.60
2019,05,26,09,27,15.60
2019,05,26,09,28,15.70
2019,05,26,09,29,15.70
2019,05,26,09,30,15.80
2019,05,26,09,31,15.90
2019,05,26,09,32,15.90
2019,05,26,09,33,16.00
2019,05,26,09,34,16.00
2019,05,26,09,35,16.10
2019,05,26,09,36,16.10
2019,05,26,09,37,16.00
2019,05,26,09,38,16.00
2019,05,26,09,39,15.90
2019,05,26,09,40,15.90
2019,05,26,09,41,15.90
2019,05,26,09,42,15.90
2019,05,26,09,43,15.90
2019,05,26,09,44,15.90
2019,05,26,09,45,16.00
2019,05,26,09,46,16.10
2019,05,26,09,47,16.10
2019,05,26,09,48,16.00
2019,05,26,09,49,15.90
2019,05,26,09,50,15.90
2019,05,26,09,51,15.80
2019,05,26,09,52,15.80
2019,05,26,09,53,15.80
2019,05,26,09,54,15.80
2019,05,26,09,55,15.80
2019,05,26,09,56,15.90
2019,05,26,09,57,15.90
2019,05,26,09,58,15.90
2019,05,26,09,59,15.90
2019,05,26,10,00,15.90
2019,05,26,10,01,16.00
2019,05,26,10,02,16.00
2019,05,26,10,03,16.00
2019,05,26,10,04,16.00
2019,05,26,10,05,16.10
2019,05,26,10,06,16.10
2019,05,26,10,07,16.30
2019,05,26,10,08,16.40
2019,05,26,10,09,16.60
2019,05,26,10,10,16.70
2019,05,26,10,11,16.80
2019,05,26,10,12,16.90
2019,05,26,10,13,17.00
2019,05,26,10,14,17.00
2019,05,26,10,15,17.10
2019,05,26,10,16,17.10
2019,05,26,10,17,17.20
2019,05,26,10,18,17.30
2019,05,26,10,19,17.40
2019,05,26,10,20,17.50
2019,05,26,10,21,17.60
2019,05,26,10,22,17.70
2019,05,26,10,23,17.80
2019,05,26,10,24,17.90
2019,05,26,10,25,17.90
2019,05,26,10,26,18.00
2019,05,26,10,27,18.00
2019,05,26,10,28,18.10
2019,05,26,10,29,18.10
2019,05,26,10,30,18.20
2019,05,26,10,31,18.30
2019,05,26,10,32,18.40
2019,05,26,10,33,18.50
2019,05,26,10,34,18.60
2019,05,26,10,35,18.60
2019,05,26,10,36,18.70
2019,05,26,10,37,18.70
2019,05,26,10,38,18.80
2019,05,26,10,39,18.90
2019,05,26,10,40,18.90
2019,05,26,10,41,19.00
2019,05,26,10,42,19.00
2019,05,26,10,43,19.10
2019,05,26,10,44,19.20
2019,05,26,10,45,19.30
2019,05,26,10,46,19.40
2019,05,26,10,47,19.60
2019,05,26,10,48,19.70
2019,05,26,10,49,19.80
2019,05,26,10,50,20.00
2019,05,26,10,51,20.10
2019,05,26,10,52,20.10
2019,05,26,10,53,20.20
2019,05,26,10,54,20.30
2019,05,26,10,55,20.40
2019,05,26,10,56,20.40
2019,05,26,10,57,20.40
2019,05,26,10,58,20.50
2019,05,26,10,59,20.50
2019,05,26,11,00,20.40
2019,05,26,11,01,20.40
2019,05,26,11,02,20.30
2019,05,26,11,03,20.30
2019,05,26,11,04,20.30
2019,05,26,11,05,20.30
2019,05,26,11,06,20.40
2019,05,26,11,07,20.40
2019,05,26,11,08,20.30
2019,05,26,11,09,20.10
2019,05,26,11,10,20.00
2019,05,26,11,11,19.90
2019,05,26,11,12,19.70
2019,05,26,11,13,19.60
2019,05,26,11,14,19.50
2019,05,26,11,15,19.40
2019,05,26,11,16,19.40
2019,05,26,11,17,19.40
2019,05,26,11,18,19.50
2019,05,26,11,19,19.60
2019,05,26,11,20,19.70
2019,05,26,11,21,19.70
2019,05,26,11,22,19.70
2019,05,26,11,23,19.60
2019,05,26,11,24,19.60
2019,05,26,11,25,19.60
2019,05,26,11,26,19.70
2019,05,26,11,27,19.80
2019,05,26,11,28,19.80
2019,05,26,11,29,19.80
2019,05,26,11,30,19.70
2019,05,26,11,31,19.60
2019,05,26,11,32,19.60
2019,05,26,11,33,19.60
2019,05,26,11,34,19.60
2019,05,26,11,35,19.60
2019,05,26,11,36,19.50
2019,05,26,11,37,19.40
2019,05,26,11,38,19.40
2019,05,26,11,39,19.50
2019,05,26,11,40,19.60
2019,05,26,11,41,19.60
2019,05,26,11,42,19.70
2019,05,26,11,43,19.60
2019,05,26,11,44,19.70
2019,05,26,11,45,19.80
2019,05,26,11,46,19.90
2019,05,26,11,47,19.90
2019,05,26,11,48,19.90
2019,05,26,11,49,19.90
2019,05,26,11,50,20.00
2019,05,26,11,51,20.00
2019,05,26,11,52,20.00
2019,05,26,11,53,20.00
2019,05,26,11,54,19.90
2019,05,26,11,55,19.90
2019,05,26,11,56,19.80
2019,05,26,11,57,19.80
2019,05,26,11,58,19.90
2019,05,26,11,59,19.90
2019,05,26,12,00,19.90
2019,05,26,12,01,19.80
2019,05,26,12,02,19.70
2019,05,26,12,03,19.60
2019,05,26,12,04,19.50
2019,05,26,12,05,19.40
2019,05,26,12,06,19.40
2019,05,26,12,07,19.40
2019,05,26,12,08,19.40
2019,05,26,12,09,19.40
2019,05,26,12,10,19.50
2019,05,26,12,11,19.60
2019,05,26,12,12,19.70
2019,05,26,12,13,19.70
2019,05,26,12,14,19.70
2019,05,26,12,15,19.70
2019,05,26,12,16,19.70
2019,05,26,12,17,19.70
2019,05,26,12,18,19.70
2019,05,26,12,19,19.70
2019,05,26,12,20,19.60
2019,05,26,12,21,19.60
2019,05,26,12,22,19.50
2019,05,26,12,23,19.50
2019,05,26,12,24,19.40
2019,05,26,12,25,19.30
2019,05,26,12,26,19.30
2019,05,26,12,27,19.30
2019,05,26,12,28,19.40
2019,05,26,12,29,19.40
2019,05,26,12,30,19.40
2019,05,26,12,31,19.40
2019,05,26,12,32,19.40
2019,05,26,12,33,19.50
2019,05,26,12,34,19.60
2019,05,26,12,35,19.70
2019,05,26,12,36,19.80
2019,05,26,12,37,19.90
2019,05,26,12,38,19.90
2019,05,26,12,39,19.90
2019,05,26,12,40,20.00
2019,05,26,12,41,19.90
2019,05,26,12,42,19.90
2019,05,26,12,43,19.80
2019,05,26,12,44,19.80
2019,05,26,12,45,19.90
2019,05,26,12,46,20.00
2019,05,26,12,47,20.10
2019,05,26,12,48,20.10
2019,05,26,12,49,20.10
2019,05,26,12,50,20.10
2019,05,26,12,51,20.10
2019,05,26,12,52,20.10
2019,05,26,12,53,20.10
2019,05,26,12,54,20.20
2019,05,26,12,55,20.20
2019,05,26,12,56,20.10
2019,05,26,12,57,20.10
2019,05,26,12,58,20.00
2019,05,26,12,59,20.00
2019,05,26,13,00,20.00
2019,05,26,13,01,20.00
2019,05,26,13,02,19.90
2019,05,26,13,03,19.90
2019,05,26,13,04,20.00
2019,05,26,13,05,20.20
2019,05,26,13,06,20.30
2019,05,26,13,07,20.50
2019,05,26,13,08,20.60
2019,05,26,13,09,20.60
2019,05,26,13,10,20.60
2019,05,26,13,11,20.60
2019,05,26,13,12,20.60
2019,05,26,13,13,20.60
2019,05,26,13,14,20.60
2019,05,26,13,15,20.60
2019,05,26,13,16,20.60
2019,05,26,13,17,20.60
2019,05,26,13,18,20.70
2019,05,26,13,19,20.60
2019,05,26,13,20,20.60
2019,05,26,13,21,20.60
2019,05,26,13,22,20.60
2019,05,26,13,23,20.60
2019,05,26,13,24,20.60
2019,05,26,13,25,20.60
2019,05,26,13,26,20.60
2019,05,26,13,27,20.70
2019,05,26,13,28,20.80
2019,05,26,13,29,20.80
2019,05,26,13,30,20.90
2019,05,26,13,31,20.90
2019,05,26,13,32,20.90
2019,05,26,13,33,21.00
2019,05,26,13,34,21.10
2019,05,26,13,35,21.10
2019,05,26,13,36,21.10
2019,05,26,13,37,21.20
2019,05,26,13,38,21.30
2019,05,26,13,39,21.30
2019,05,26,13,40,21.30
2019,05,26,13,41,21.30
2019,05,26,13,42,21.20
2019,05,26,13,43,21.20
2019,05,26,13,44,21.10
2019,05,26,13,45,21.10
2019,05,26,13,46,21.00
2019,05,26,13,47,21.10
2019,05,26,13,48,21.20
2019,05,26,13,49,21.20
2019,05,26,13,50,21.10
2019,05,26,13,51,21.10
2019,05,26,13,52,21.10
2019,05,26,13,53,21.20
2019,05,26,13,54,21.20
2019,05,26,13,55,21.30
2019,05,26,13,56,21.30
2019,05,26,13,57,21.30
2019,05,26,13,58,21.40
2019,05,26,13,59,21.40
2019,05,26,14,00,21.40
2019,05,26,14,01,21.50
2019,05,26,14,02,21.50
2019,05,26,14,03,21.50
2019,05,26,14,04,21.50
2019,05,26,14,05,21.60
2019,05,26,14,06,21.60
2019,05,26,14,07,21.60
2019,05,26,14,08,21.70
2019,05,26,14,09,21.80
2019,05,26,14,10,21.80
2019,05,26,14,11,21.90
2019,05,26,14,12,22.00
2019,05,26,14,13,22.10
2019,05,26,14,14,22.20
2019,05,26,14,15,22.30
2019,05,26,14,16,22.30
2019,05,26,14,17,22.30
2019,05,26,14,18,22.30
2019,05,26,14,19,22.20
2019,05,26,14,20,22.20
2019,05,26,14,21,22.20
2019,05,26,14,22,22.10
2019,05,26,14,23,22.00
2019,05,26,14,24,22.00
2019,05,26,14,25,22.00
2019,05,26,14,26,21.90
2019,05,26,14,27,21.90
2019,05,26,14,28,21.90
2019,05,26,14,29,21.90
2019,05,26,14,30,21.80
2019,05,26,14,31,21.80
2019,05,26,14,32,21.80
2019,05,26,14,33,21.80
2019,05,26,14,34,21.80
2019,05,26,14,35,21.80
2019,05,26,14,36,21.90
2019,05,26,14,37,22.00
2019,05,26,14,38,22.00
2019,05,26,14,39,22.10
2019,05,26,14,40,22.20
2019,05,26,14,41,22.20
2019,05,26,14,42,22.10
2019,05,26,14,43,22.10
2019,05,26,14,44,22.00
2019,05,26,14,45,22.00
2019,05,26,14,46,21.90
2019,05,26,14,47,22.00
2019,05,26,14,48,22.10
2019,05,26,14,49,22.20
2019,05,26,14,50,22.30
2019,05,26,14,51,22.40
2019,05,26,14,52,22.40
2019,05,26,14,53,22.40
2019,05,26,14,54,22.40
2019,05,26,14,55,22.40
2019,05,26,14,56,22.50
2019,05,26,14,57,22.60
2019,05,26,14,58,22.60
2019,05,26,14,59,22.50
2019,05,26,15,00,22.50
2019,05,26,15,01,22.40
2019,05,26,15,02,22.40
2019,05,26,15,03,22.40
2019,05,26,15,04,22.40
2019,05,26,15,05,22.60
2019,05,26,15,06,22.70
2019,05,26,15,07,22.80
2019,05,26,15,08,22.80
2019,05,26,15,09,22.80
2019,05,26,15,10,22.70
2019,05,26,15,11,22.60
2019,05,26,15,12,22.50
2019,05,26,15,13,22.50
2019,05,26,15,14,22.40
2019,05,26,15,15,22.30
2019,05,26,15,16,22.20
2019,05,26,15,17,22.10
2019,05,26,15,18,22.00
2019,05,26,15,19,22.00
2019,05,26,15,20,21.90
2019,05,26,15,21,21.90
2019,05,26,15,22,21.90
2019,05,26,15,23,21.90
2019,05,26,15,24,22.00
2019,05,26,15,25,22.00
2019,05,26,15,26,22.10
2019,05,26,15,27,22.10
2019,05,26,15,28,22.20
2019,05,26,15,29,22.30
2019,05,26,15,30,22.40
2019,05,26,15,31,22.50
2019,05,26,15,32,22.60
2019,05,26,15,33,22.80
2019,05,26,15,34,22.90
2019,05,26,15,35,23.00
2019,05,26,15,36,23.10
2019,05,26,15,37,23.30
2019,05,26,15,38,23.30
2019,05,26,15,39,23.40
2019,05,26,15,40,23.40
2019,05,26,15,41,23.50
2019,05,26,15,42,23.60
2019,05,26,15,43,23.70
2019,05,26,15,44,23.90
2019,05,26,15,45,24.00
2019,05,26,15,46,24.10
2019,05,26,15,47,24.20
2019,05,26,15,48,24.30
2019,05,26,15,49,24.30
2019,05,26,15,50,24.40
2019,05,26,15,51,24.50
2019,05,26,15,52,24.70
2019,05,26,15,53,24.80
2019,05,26,15,54,24.90
2019,05,26,15,55,24.90
2019,05,26,15,56,24.90
2019,05,26,15,57,24.90
2019,05,26,15,58,24.90
2019,05,26,15,59,24.90
2019,05,26,16,00,24.90
2019,05,26,16,01,24.90
2019,05,26,16,02,24.90
2019,05,26,16,03,24.90
2019,05,26,16,04,24.90
2019,05,26,16,05,24.90
2019,05,26,16,06,24.90
2019,05,26,16,07,24.80
2019,05,26,16,08,24.80
2019,05,26,16,09,24.70
2019,05,26,16,10,24.60
2019,05,26,16,11,24.60
2019,05,26,16,12,24.50
2019,05,26,16,13,24.40
2019,05,26,16,14,24.30
2019,05,26,16,15,24.30
2019,05,26,16,16,24.30
2019,05,26,16,17,24.40
2019,05,26,16,18,24.50
2019,05,26,16,19,24.60
2019,05,26,16,20,24.70
2019,05,26,16,21,24.80
2019,05,26,16,22,24.90
2019,05,26,16,23,25.10
2019,05,26,16,24,25.10
2019,05,26,16,25,25.20
2019,05,26,16,26,25.30
2019,05,26,16,27,25.40
2019,05,26,16,28,25.40
2019,05,26,16,29,25.50
2019,05,26,16,30,25.50
2019,05,26,16,31,25.60
2019,05,26,16,32,25.60
2019,05,26,16,33,25.70
2019,05,26,16,34,25.70
2019,05,26,16,35,25.70
2019,05,26,16,36,25.60
2019,05,26,16,37,25.60
2019,05,26,16,38,25.60
2019,05,26,16,39,25.60
2019,05,26,16,40,25.60
2019,05,26,16,41,25.50
2019,05,26,16,42,25.20
2019,05,26,16,43,24.70
2019,05,26,16,44,24.10
2019,05,26,16,45,23.70
2019,05,26,16,46,23.30
2019,05,26,16,47,23.10
2019,05,26,16,48,22.80
2019,05,26,16,49,22.70
2019,05,26,16,50,22.70
2019,05,26,16,51,22.80
2019,05,26,16,52,22.70
2019,05,26,16,53,22.50
2019,05,26,16,54,22.30
2019,05,26,16,55,22.20
2019,05,26,16,56,22.30
2019,05,26,16,57,22.40
2019,05,26,16,58,22.50
2019,05,26,16,59,22.50
2019,05,26,17,00,22.60
2019,05,26,17,01,22.70
2019,05,26,17,02,22.80
2019,05,26,17,03,22.90
2019,05,26,17,04,23.00
2019,05,26,17,05,23.20
2019,05,26,17,06,23.30
2019,05,26,17,07,23.40
2019,05,26,17,08,23.50
2019,05,26,17,09,23.50
2019,05,26,17,10,23.60
2019,05,26,17,11,23.60
2019,05,26,17,12,23.60
2019,05,26,17,13,23.60
2019,05,26,17,14,23.70
2019,05,26,17,15,23.70
2019,05,26,17,16,23.80
2019,05,26,17,17,23.90
2019,05,26,17,18,23.90
2019,05,26,17,19,24.00